Regional Weather Roundup
Issued by NWS Cleveland, OH

Home | Current Version | Previous Version | Graphics & Text | Print | Product List | Glossary On
Versions: 1 2 3 4 5 6 7 8 9 10 11 12 13 14 15 16 17 18 19 20 21 22 23 24 25 26 27 28 29 30 31 32 33 34 35 36 37 38 39 40 41 42 43 44 45 46 47 48 49 50
000
ASUS41 KCLE 201800
RWRCLE
OHIO REGIONAL WEATHER ROUNDUP
NATIONAL WEATHER SERVICE WILMINGTON, OH
200 PM EDT FRI OCT 20 2017

NOTE: "FAIR" INDICATES FEW OR NO CLOUDS BELOW 12,000 FEET WITH NO
SIGNIFICANT WEATHER AND/OR OBSTRUCTIONS TO VISIBILITY.

OHZ001>008-015>018-024>027-034-035-043-044-201900-
   NORTHWEST OHIO

CITY           SKY/WX    TMP DP  RH WIND       PRES   REMARKS
DEFIANCE       FAIR      73  51  46 S7        30.22F
FINDLAY        FAIR      74  45  35 SE9       30.23F
TOLEDO EXPRESS FAIR      74  47  38 SW9       30.23F
TOLEDO EXEC    FAIR      73  44  35 S8        30.24F
LIMA           FAIR      72  51  47 VRB6G17   30.24F
$$

OHZ009>014-019>023-028>033-038-089-201900-
   NORTHEAST OHIO

CITY           SKY/WX    TMP DP  RH WIND       PRES   REMARKS
CLE-HOPKINS    FAIR      74  40  29 S7        30.27F
CLE-LAKEFRONT  FAIR      71  36  27 SE7       30.24F
CUY CO. ARPT   SUNNY     73  34  23 S8        30.27F
LORAIN-ELYRIA  FAIR      70  37  29 S6        30.26F
ASHTABULA      FAIR      69  30  23 VRB5      30.27F
AKRON-CANTON   FAIR      70  37  29 VRB3      30.27F
WOOSTER        NOT AVBL
MANSFIELD      FAIR      71  36  27 SE5       30.27F
YOUNGSTOWN     FAIR      70  32  24 W5        30.27F
$$

OHZ042-051>053-060>062-070>072-077>081-201900-
  SOUTHWEST OHIO

CITY           SKY/WX    TMP DP  RH WIND       PRES   REMARKS
CINC-COVINGTON FAIR      73  55  53 VRB6      30.25F
CINC-LUNKEN    FAIR      73  55  53 VRB3      30.26F
HAMILTON       FAIR      76  56  49 VRB3      30.25F
DAYTON         NOT AVBL
WRIGHT-PAT AFB NOT AVBL
DAYTON GENERAL FAIR      73  54  51 S9        30.25F
WILMINGTON     FAIR      74  56  53 VRB3      30.26F
$$

OHZ036-037-039>041-045>050-054>059-063>069-073>076-082>088-201900-
  CENTRAL AND SOUTHEAST OHIO

CITY           SKY/WX    TMP DP  RH WIND       PRES   REMARKS
COLUMBUS       FAIR      72  38  29 SE7       30.27F
OSU AIRPORT    FAIR      71  45  39 VRB3      30.27F
BOLTON FIELD   SUNNY     72  46  40 SE3       30.27F
RICKENBACK AFB NOT AVBL
NEWARK         FAIR      71  34  25 CALM      30.27F
MARION         FAIR      71  33  24 S6        30.26F
LANCASTER      FAIR      71  40  32 E5        30.27F
ZANESVILLE     FAIR      71  42  35 CALM      30.27F
NEW PHILLY     FAIR      71  41  33 SE5       30.27F
$$




USA.gov is the U.S. government's official web portal to all federal, state and local government web resources and services.